Weather History for Roseburg, OR

Change the Weather History Date:

Monday, November 19, 2012

  Actual Average Record
Temperature  
Mean Temperature 59 °F 46 °F  
Max Temperature 65 °F 52 °F 68 °F (2001)
Min Temperature 53 °F 40 °F 27 °F (1977)
Degree Days  
Heating Degree Days 6 19  
Month to date heating degree days 257 319  
Since 1 July heating degree days 528 705  
Cooling Degree Days 0 0  
Month to date cooling degree days 0 0  
Year to date cooling degree days 496 480  
Growing Degree Days 8 (Base 50)    
Moisture  
Dew Point 48 °F    
Average Humidity 78    
Maximum Humidity 100    
Minimum Humidity 55    
Precipitation  
Precipitation 1.73 in 0.23 in 1.73 in (2012)
Month to date precipitation 2.73 3.76  
Year to date precipitation 28.45 27.04  
Sea Level Pressure  
Sea Level Pressure 29.75 in    
Wind  
Wind Speed 10 mph (SSE)    
Max Wind Speed 25 mph    
Max Gust Speed 37 mph    
Visibility 8 miles    
Events Rain    
T = Trace of Precipitation, MM = Missing Value Source: NWS Daily Summary

Daily Weather History Graph

Daily Weather History Graph

Search for Another Location

Airport:

Trip Planner

Search our weather history database for the weather conditions in past years. The results will help you decide how hot, cold, wet, or windy it might be!

Date:

Astronomy

Nov. 19, 2012 Rise Set
Actual Time 7:12 AM PST 4:45 PM PST
Civil Twilight 6:41 AM PST 5:16 PM PST
Nautical Twilight 6:06 AM PST 5:51 PM PST
Astronomical Twilight 5:32 AM PST 6:25 PM PST
Moon 12:14 PM PST (11/19) 11:23 PM PST (11/19)
Length of Visible Light 10h 35m
Length of Day
9h 33m
Waxing Crescent, 42% of the Moon is Illuminated
Nov 19
Waxing Crescent
Nov 20
First Quarter
Nov 28
Full
Dec 6
Last Quarter
Dec 13
New

Hourly Weather History & Observations

Time (PST) Temp. Dew Point Humidity Pressure Visibility Wind Dir Wind Speed Gust Speed Precip Events Conditions
12:53 AM 55.0 °F 42.1 °F 62% 29.81 in 10.0 mi SSE 17.3 mph 24.2 mph N/A   Mostly Cloudy
1:53 AM 55.9 °F 42.1 °F 60% 29.80 in 10.0 mi SSE 13.8 mph - N/A   Overcast
2:53 AM 55.0 °F 44.1 °F 67% 29.82 in 10.0 mi South 10.4 mph 18.4 mph 0.00 in Rain Light Rain
3:53 AM 55.0 °F 42.1 °F 62% 29.80 in 10.0 mi SSE 16.1 mph 21.9 mph 0.00 in   Mostly Cloudy
4:53 AM 55.9 °F 42.1 °F 60% 29.79 in 10.0 mi SSE 13.8 mph 18.4 mph N/A   Overcast
5:53 AM 55.9 °F 42.1 °F 60% 29.77 in 10.0 mi SSE 12.7 mph 19.6 mph 0.00 in   Overcast
6:53 AM 57.0 °F 42.1 °F 57% 29.75 in 10.0 mi SSE 15.0 mph 19.6 mph N/A   Overcast
7:53 AM 57.9 °F 41.0 °F 53% 29.75 in 10.0 mi SSE 12.7 mph 18.4 mph N/A   Overcast
8:53 AM 57.9 °F 42.1 °F 56% 29.75 in 10.0 mi SSE 16.1 mph 28.8 mph 0.00 in   Overcast
9:53 AM 59.0 °F 44.1 °F 58% 29.73 in 10.0 mi SSE 11.5 mph 23.0 mph 0.00 in Rain Light Rain
10:53 AM 61.0 °F 45.0 °F 56% 29.73 in 10.0 mi SSE 17.3 mph 25.3 mph 0.00 in Rain Light Rain
11:53 AM 61.0 °F 46.9 °F 60% 29.70 in 10.0 mi SSE 15.0 mph 27.6 mph 0.00 in   Overcast
12:53 PM 64.0 °F 48.0 °F 56% 29.68 in 10.0 mi South 13.8 mph 27.6 mph N/A   Overcast
1:53 PM 64.0 °F 48.0 °F 56% 29.66 in 10.0 mi South 15.0 mph 20.7 mph N/A   Overcast
2:53 PM 64.9 °F 48.0 °F 54% 29.66 in 10.0 mi South 15.0 mph 25.3 mph N/A   Overcast
3:53 PM 63.0 °F 48.9 °F 60% 29.68 in 10.0 mi SSW 11.5 mph 20.7 mph 0.00 in Rain Light Rain
4:53 PM 57.0 °F 53.1 °F 87% 29.71 in 3.0 mi South 4.6 mph - 0.19 in Rain Heavy Rain
5:53 PM 57.0 °F 53.1 °F 87% 29.68 in 10.0 mi South 8.1 mph - 0.23 in Rain Light Rain
6:34 PM 55.4 °F 53.6 °F 94% 29.73 in 2.0 mi Calm Calm - 0.08 in Rain Heavy Rain
6:53 PM 55.0 °F 54.0 °F 96% 29.73 in 3.0 mi Calm Calm - 0.14 in Rain Rain
7:24 PM 55.4 °F 53.6 °F 94% 29.74 in - ENE 3.5 mph - 0.16 in Rain Heavy Rain
7:53 PM 55.0 °F 54.0 °F 96% 29.77 in - Calm Calm - 0.33 in Rain Heavy Rain
8:03 PM 55.4 °F 53.6 °F 94% 29.77 in - Calm Calm - 0.06 in Rain Heavy Rain
8:53 PM 54.0 °F 53.1 °F 97% 29.79 in - South 3.5 mph - 0.22 in Rain Rain
9:53 PM 54.0 °F 52.0 °F 93% 29.79 in 8.0 mi Calm Calm - 0.15 in Rain Light Rain
10:53 PM 54.0 °F 52.0 °F 93% 29.78 in 3.0 mi SSE 3.5 mph - 0.16 in Rain Rain
11:09 PM 53.6 °F 51.8 °F 94% 29.79 in 2.5 mi Calm Calm - 0.05 in Rain Rain
11:17 PM 53.6 °F 51.8 °F 94% 29.80 in 3.0 mi Calm Calm - 0.07 in Rain Rain
11:24 PM 53.6 °F 51.8 °F 94% 29.79 in 2.0 mi Calm Calm - 0.10 in Rain Rain
11:37 PM 53.6 °F 51.8 °F 94% 29.80 in - Calm Calm - 0.19 in Rain Heavy Rain
11:51 PM 53.6 °F 51.8 °F 94% 29.80 in 2.5 mi Calm Calm - 0.26 in Rain Heavy Rain
11:53 PM 53.1 °F 51.1 °F 93% 29.79 in - Calm Calm - 0.28 in Rain Heavy Rain